Year,Month,Day,Hour,Minute,Value (Times are PST for temperature in C)
2016,08,23,00,00,15.20
2016,08,23,00,01,15.10
2016,08,23,00,02,15.10
2016,08,23,00,03,15.10
2016,08,23,00,04,15.00
2016,08,23,00,05,15.00
2016,08,23,00,06,15.00
2016,08,23,00,07,14.90
2016,08,23,00,08,14.90
2016,08,23,00,09,14.90
2016,08,23,00,10,14.80
2016,08,23,00,11,14.80
2016,08,23,00,12,14.80
2016,08,23,00,13,14.80
2016,08,23,00,14,14.80
2016,08,23,00,15,14.80
2016,08,23,00,16,14.70
2016,08,23,00,17,14.70
2016,08,23,00,18,14.70
2016,08,23,00,19,14.70
2016,08,23,00,20,14.60
2016,08,23,00,21,14.60
2016,08,23,00,22,14.60
2016,08,23,00,23,14.60
2016,08,23,00,24,14.60
2016,08,23,00,25,14.50
2016,08,23,00,26,14.50
2016,08,23,00,27,14.50
2016,08,23,00,28,14.50
2016,08,23,00,29,14.50
2016,08,23,00,30,14.50
2016,08,23,00,31,14.50
2016,08,23,00,32,14.50
2016,08,23,00,33,14.40
2016,08,23,00,34,14.40
2016,08,23,00,35,14.40
2016,08,23,00,36,14.40
2016,08,23,00,37,14.40
2016,08,23,00,38,14.40
2016,08,23,00,39,14.30
2016,08,23,00,40,14.30
2016,08,23,00,41,14.30
2016,08,23,00,42,14.30
2016,08,23,00,43,14.30
2016,08,23,00,44,14.30
2016,08,23,00,45,14.30
2016,08,23,00,46,14.30
2016,08,23,00,47,14.30
2016,08,23,00,48,14.30
2016,08,23,00,49,14.30
2016,08,23,00,50,14.30
2016,08,23,00,51,14.20
2016,08,23,00,52,14.20
2016,08,23,00,53,14.20
2016,08,23,00,54,14.20
2016,08,23,00,55,14.20
2016,08,23,00,56,14.20
2016,08,23,00,57,14.20
2016,08,23,00,58,14.20
2016,08,23,00,59,14.20
2016,08,23,01,00,14.20
2016,08,23,01,01,14.20
2016,08,23,01,02,14.30
2016,08,23,01,03,14.30
2016,08,23,01,04,14.30
2016,08,23,01,05,14.30
2016,08,23,01,06,14.30
2016,08,23,01,07,14.30
2016,08,23,01,08,14.30
2016,08,23,01,09,14.30
2016,08,23,01,10,14.20
2016,08,23,01,11,14.20
2016,08,23,01,12,14.20
2016,08,23,01,13,14.20
2016,08,23,01,14,14.20
2016,08,23,01,15,14.30
2016,08,23,01,16,14.30
2016,08,23,01,17,14.30
2016,08,23,01,18,14.30
2016,08,23,01,19,14.30
2016,08,23,01,20,14.30
2016,08,23,01,21,14.30
2016,08,23,01,22,14.30
2016,08,23,01,23,14.30
2016,08,23,01,24,14.30
2016,08,23,01,25,14.20
2016,08,23,01,26,14.20
2016,08,23,01,27,14.20
2016,08,23,01,28,14.10
2016,08,23,01,29,14.10
2016,08,23,01,30,14.10
2016,08,23,01,31,14.10
2016,08,23,01,32,14.00
2016,08,23,01,33,14.00
2016,08,23,01,34,13.90
2016,08,23,01,35,13.90
2016,08,23,01,36,13.90
2016,08,23,01,37,13.90
2016,08,23,01,38,13.80
2016,08,23,01,39,13.80
2016,08,23,01,40,13.80
2016,08,23,01,41,13.80
2016,08,23,01,42,13.80
2016,08,23,01,43,13.70
2016,08,23,01,44,13.70
2016,08,23,01,45,13.70
2016,08,23,01,46,13.70
2016,08,23,01,47,13.70
2016,08,23,01,48,13.70
2016,08,23,01,49,13.60
2016,08,23,01,50,13.60
2016,08,23,01,51,13.60
2016,08,23,01,52,13.60
2016,08,23,01,53,13.70
2016,08,23,01,54,13.70
2016,08,23,01,55,13.70
2016,08,23,01,56,13.70
2016,08,23,01,57,13.70
2016,08,23,01,58,13.80
2016,08,23,01,59,13.80
2016,08,23,02,00,13.80
2016,08,23,02,01,13.80
2016,08,23,02,02,13.80
2016,08,23,02,03,13.80
2016,08,23,02,04,13.80
2016,08,23,02,05,13.80
2016,08,23,02,06,13.80
2016,08,23,02,07,13.80
2016,08,23,02,08,13.80
2016,08,23,02,09,13.80
2016,08,23,02,10,13.80
2016,08,23,02,11,13.80
2016,08,23,02,12,13.80
2016,08,23,02,13,13.70
2016,08,23,02,14,13.70
2016,08,23,02,15,13.70
2016,08,23,02,16,13.70
2016,08,23,02,17,13.70
2016,08,23,02,18,13.60
2016,08,23,02,19,13.60
2016,08,23,02,20,13.60
2016,08,23,02,21,13.60
2016,08,23,02,22,13.50
2016,08,23,02,23,13.50
2016,08,23,02,24,13.50
2016,08,23,02,25,13.40
2016,08,23,02,26,13.40
2016,08,23,02,27,13.40
2016,08,23,02,28,13.40
2016,08,23,02,29,13.30
2016,08,23,02,30,13.30
2016,08,23,02,31,13.30
2016,08,23,02,32,13.30
2016,08,23,02,33,13.30
2016,08,23,02,34,13.30
2016,08,23,02,35,13.30
2016,08,23,02,36,13.20
2016,08,23,02,37,13.20
2016,08,23,02,38,13.20
2016,08,23,02,39,13.20
2016,08,23,02,40,13.20
2016,08,23,02,41,13.20
2016,08,23,02,42,13.20
2016,08,23,02,43,13.10
2016,08,23,02,44,13.10
2016,08,23,02,45,13.10
2016,08,23,02,46,13.10
2016,08,23,02,47,13.00
2016,08,23,02,48,13.00
2016,08,23,02,49,13.00
2016,08,23,02,50,13.00
2016,08,23,02,51,12.90
2016,08,23,02,52,12.90
2016,08,23,02,53,12.90
2016,08,23,02,54,12.90
2016,08,23,02,55,12.80
2016,08,23,02,56,12.80
2016,08,23,02,57,12.80
2016,08,23,02,58,12.80
2016,08,23,02,59,12.80
2016,08,23,03,00,12.80
2016,08,23,03,01,12.70
2016,08,23,03,02,12.70
2016,08,23,03,03,12.70
2016,08,23,03,04,12.70
2016,08,23,03,05,12.70
2016,08,23,03,06,12.70
2016,08,23,03,07,12.70
2016,08,23,03,08,12.70
2016,08,23,03,09,12.70
2016,08,23,03,10,12.60
2016,08,23,03,11,12.60
2016,08,23,03,12,12.60
2016,08,23,03,13,12.60
2016,08,23,03,14,12.70
2016,08,23,03,15,12.70
2016,08,23,03,16,12.70
2016,08,23,03,17,12.70
2016,08,23,03,18,12.70
2016,08,23,03,19,12.70
2016,08,23,03,20,12.70
2016,08,23,03,21,12.70
2016,08,23,03,22,12.80
2016,08,23,03,23,12.80
2016,08,23,03,24,12.80
2016,08,23,03,25,12.80
2016,08,23,03,26,12.80
2016,08,23,03,27,12.80
2016,08,23,03,28,12.90
2016,08,23,03,29,12.90
2016,08,23,03,30,12.90
2016,08,23,03,31,12.90
2016,08,23,03,32,12.90
2016,08,23,03,33,12.90
2016,08,23,03,34,12.90
2016,08,23,03,35,12.90
2016,08,23,03,36,12.90
2016,08,23,03,37,12.90
2016,08,23,03,38,12.90
2016,08,23,03,39,12.90
2016,08,23,03,40,12.90
2016,08,23,03,41,12.90
2016,08,23,03,42,12.90
2016,08,23,03,43,12.90
2016,08,23,03,44,12.90
2016,08,23,03,45,12.90
2016,08,23,03,46,12.80
2016,08,23,03,47,12.80
2016,08,23,03,48,12.80
2016,08,23,03,49,12.80
2016,08,23,03,50,12.80
2016,08,23,03,51,12.80
2016,08,23,03,52,12.80
2016,08,23,03,53,12.80
2016,08,23,03,54,12.70
2016,08,23,03,55,12.70
2016,08,23,03,56,12.70
2016,08,23,03,57,12.70
2016,08,23,03,58,12.70
2016,08,23,03,59,12.70
2016,08,23,04,00,12.60
2016,08,23,04,01,12.60
2016,08,23,04,02,12.60
2016,08,23,04,03,12.60
2016,08,23,04,04,12.60
2016,08,23,04,05,12.50
2016,08,23,04,06,12.50
2016,08,23,04,07,12.50
2016,08,23,04,08,12.50
2016,08,23,04,09,12.50
2016,08,23,04,10,12.40
2016,08,23,04,11,12.40
2016,08,23,04,12,12.40
2016,08,23,04,13,12.40
2016,08,23,04,14,12.30
2016,08,23,04,15,12.30
2016,08,23,04,16,12.30
2016,08,23,04,17,12.30
2016,08,23,04,18,12.30
2016,08,23,04,19,12.30
2016,08,23,04,20,12.30
2016,08,23,04,21,12.30
2016,08,23,04,22,12.20
2016,08,23,04,23,12.20
2016,08,23,04,24,12.20
2016,08,23,04,25,12.20
2016,08,23,04,26,12.20
2016,08,23,04,27,12.20
2016,08,23,04,28,12.20
2016,08,23,04,29,12.10
2016,08,23,04,30,12.10
2016,08,23,04,31,12.10
2016,08,23,04,32,12.10
2016,08,23,04,33,12.10
2016,08,23,04,34,12.10
2016,08,23,04,35,12.10
2016,08,23,04,36,12.10
2016,08,23,04,37,12.00
2016,08,23,04,38,12.00
2016,08,23,04,39,12.00
2016,08,23,04,40,11.90
2016,08,23,04,41,11.90
2016,08,23,04,42,11.90
2016,08,23,04,43,11.90
2016,08,23,04,44,11.90
2016,08,23,04,45,11.80
2016,08,23,04,46,11.80
2016,08,23,04,47,11.80
2016,08,23,04,48,11.80
2016,08,23,04,49,11.80
2016,08,23,04,50,11.80
2016,08,23,04,51,11.80
2016,08,23,04,52,11.70
2016,08,23,04,53,11.70
2016,08,23,04,54,11.70
2016,08,23,04,55,11.70
2016,08,23,04,56,11.70
2016,08,23,04,57,11.70
2016,08,23,04,58,11.70
2016,08,23,04,59,11.70
2016,08,23,05,00,11.70
2016,08,23,05,01,11.80
2016,08,23,05,02,11.80
2016,08,23,05,03,11.80
2016,08,23,05,04,11.80
2016,08,23,05,05,11.90
2016,08,23,05,06,11.90
2016,08,23,05,07,11.90
2016,08,23,05,08,11.90
2016,08,23,05,09,12.00
2016,08,23,05,10,12.00
2016,08,23,05,11,12.00
2016,08,23,05,12,12.00
2016,08,23,05,13,12.10
2016,08,23,05,14,12.10
2016,08,23,05,15,12.10
2016,08,23,05,16,12.10
2016,08,23,05,17,12.10
2016,08,23,05,18,12.10
2016,08,23,05,19,12.10
2016,08,23,05,20,12.20
2016,08,23,05,21,12.20
2016,08,23,05,22,12.20
2016,08,23,05,23,12.20
2016,08,23,05,24,12.20
2016,08,23,05,25,12.20
2016,08,23,05,26,12.20
2016,08,23,05,27,12.20
2016,08,23,05,28,12.20
2016,08,23,05,29,12.20
2016,08,23,05,30,12.20
2016,08,23,05,31,12.20
2016,08,23,05,32,12.20
2016,08,23,05,33,12.20
2016,08,23,05,34,12.20
2016,08,23,05,35,12.20
2016,08,23,05,36,12.20
2016,08,23,05,37,12.20
2016,08,23,05,38,12.20
2016,08,23,05,39,12.20
2016,08,23,05,40,12.20
2016,08,23,05,41,12.20
2016,08,23,05,42,12.20
2016,08,23,05,43,12.10
2016,08,23,05,44,12.10
2016,08,23,05,45,12.10
2016,08,23,05,46,12.10
2016,08,23,05,47,12.10
2016,08,23,05,48,12.00
2016,08,23,05,49,12.00
2016,08,23,05,50,12.00
2016,08,23,05,51,12.00
2016,08,23,05,52,11.90
2016,08,23,05,53,11.90
2016,08,23,05,54,11.90
2016,08,23,05,55,11.90
2016,08,23,05,56,11.90
2016,08,23,05,57,11.90
2016,08,23,05,58,11.90
2016,08,23,05,59,11.90
2016,08,23,06,00,11.90
2016,08,23,06,01,11.90
2016,08,23,06,02,11.90
2016,08,23,06,03,11.90
2016,08,23,06,04,11.90
2016,08,23,06,05,11.90
2016,08,23,06,06,11.90
2016,08,23,06,07,11.90
2016,08,23,06,08,11.90
2016,08,23,06,09,11.90
2016,08,23,06,10,11.90
2016,08,23,06,11,11.90
2016,08,23,06,12,11.90
2016,08,23,06,13,12.00
2016,08,23,06,14,12.00
2016,08,23,06,15,12.00
2016,08,23,06,16,12.00
2016,08,23,06,17,12.00
2016,08,23,06,18,12.00
2016,08,23,06,19,12.00
2016,08,23,06,20,12.00
2016,08,23,06,21,12.00
2016,08,23,06,22,12.00
2016,08,23,06,23,12.10
2016,08,23,06,24,12.00
2016,08,23,06,25,12.10
2016,08,23,06,26,12.10
2016,08,23,06,27,12.10
2016,08,23,06,28,12.10
2016,08,23,06,29,12.10
2016,08,23,06,30,12.10
2016,08,23,06,31,12.10
2016,08,23,06,32,12.10
2016,08,23,06,33,12.10
2016,08,23,06,34,12.10
2016,08,23,06,35,12.10
2016,08,23,06,36,12.10
2016,08,23,06,37,12.10
2016,08,23,06,38,12.10
2016,08,23,06,39,12.10
2016,08,23,06,40,12.20
2016,08,23,06,41,12.20
2016,08,23,06,42,12.20
2016,08,23,06,43,12.20
2016,08,23,06,44,12.20
2016,08,23,06,45,12.20
2016,08,23,06,46,12.20
2016,08,23,06,47,12.20
2016,08,23,06,48,12.20
2016,08,23,06,49,12.20
2016,08,23,06,50,12.20
2016,08,23,06,51,12.30
2016,08,23,06,52,12.30
2016,08,23,06,53,12.30
2016,08,23,06,54,12.30
2016,08,23,06,55,12.30
2016,08,23,06,56,12.40
2016,08,23,06,57,12.40
2016,08,23,06,58,12.40
2016,08,23,06,59,12.40
2016,08,23,07,00,12.50
2016,08,23,07,01,12.50
2016,08,23,07,02,12.60
2016,08,23,07,03,12.60
2016,08,23,07,04,12.70
2016,08,23,07,05,12.70
2016,08,23,07,06,12.80
2016,08,23,07,07,12.80
2016,08,23,07,08,12.80
2016,08,23,07,09,12.90
2016,08,23,07,10,12.90
2016,08,23,07,11,13.00
2016,08,23,07,12,13.10
2016,08,23,07,13,13.10
2016,08,23,07,14,13.20
2016,08,23,07,15,13.20
2016,08,23,07,16,13.20
2016,08,23,07,17,13.30
2016,08,23,07,18,13.30
2016,08,23,07,19,13.40
2016,08,23,07,20,13.50
2016,08,23,07,21,13.50
2016,08,23,07,22,13.60
2016,08,23,07,23,13.70
2016,08,23,07,24,13.70
2016,08,23,07,25,13.70
2016,08,23,07,26,13.70
2016,08,23,07,27,13.70
2016,08,23,07,28,13.80
2016,08,23,07,29,13.80
2016,08,23,07,30,13.80
2016,08,23,07,31,13.80
2016,08,23,07,32,13.90
2016,08,23,07,33,13.90
2016,08,23,07,34,14.00
2016,08,23,07,35,14.10
2016,08,23,07,36,14.10
2016,08,23,07,37,14.10
2016,08,23,07,38,14.20
2016,08,23,07,39,14.20
2016,08,23,07,40,14.20
2016,08,23,07,41,14.20
2016,08,23,07,42,14.20
2016,08,23,07,43,14.20
2016,08,23,07,44,14.20
2016,08,23,07,45,14.20
2016,08,23,07,46,14.30
2016,08,23,07,47,14.30
2016,08,23,07,48,14.30
2016,08,23,07,49,14.30
2016,08,23,07,50,14.40
2016,08,23,07,51,14.40
2016,08,23,07,52,14.50
2016,08,23,07,53,14.50
2016,08,23,07,54,14.50
2016,08,23,07,55,14.60
2016,08,23,07,56,14.60
2016,08,23,07,57,14.70
2016,08,23,07,58,14.70
2016,08,23,07,59,14.70
2016,08,23,08,00,14.80
2016,08,23,08,01,14.80
2016,08,23,08,02,14.80
2016,08,23,08,03,14.90
2016,08,23,08,04,14.90
2016,08,23,08,05,14.90
2016,08,23,08,06,14.90
2016,08,23,08,07,14.90
2016,08,23,08,08,14.90
2016,08,23,08,09,14.90
2016,08,23,08,10,15.00
2016,08,23,08,11,15.00
2016,08,23,08,12,15.00
2016,08,23,08,13,15.10
2016,08,23,08,14,15.10
2016,08,23,08,15,15.10
2016,08,23,08,16,15.10
2016,08,23,08,17,15.10
2016,08,23,08,18,15.20
2016,08,23,08,19,15.20
2016,08,23,08,20,15.20
2016,08,23,08,21,15.20
2016,08,23,08,22,15.20
2016,08,23,08,23,15.10
2016,08,23,08,24,15.10
2016,08,23,08,25,15.10
2016,08,23,08,26,15.20
2016,08,23,08,27,15.20
2016,08,23,08,28,15.20
2016,08,23,08,29,15.20
2016,08,23,08,30,15.20
2016,08,23,08,31,15.20
2016,08,23,08,32,15.10
2016,08,23,08,33,15.10
2016,08,23,08,34,15.10
2016,08,23,08,35,15.10
2016,08,23,08,36,15.10
2016,08,23,08,37,15.10
2016,08,23,08,38,15.10
2016,08,23,08,39,15.10
2016,08,23,08,40,15.10
2016,08,23,08,41,15.10
2016,08,23,08,42,15.10
2016,08,23,08,43,15.00
2016,08,23,08,44,15.00
2016,08,23,08,45,15.00
2016,08,23,08,46,15.10
2016,08,23,08,47,15.10
2016,08,23,08,48,15.20
2016,08,23,08,49,15.30
2016,08,23,08,50,15.30
2016,08,23,08,51,15.40
2016,08,23,08,52,15.50
2016,08,23,08,53,15.60
2016,08,23,08,54,15.60
2016,08,23,08,55,15.70
2016,08,23,08,56,15.80
2016,08,23,08,57,15.80
2016,08,23,08,58,15.80
2016,08,23,08,59,15.80
2016,08,23,09,00,15.90
2016,08,23,09,01,15.90
2016,08,23,09,02,16.00
2016,08,23,09,03,16.00
2016,08,23,09,04,16.10
2016,08,23,09,05,16.20
2016,08,23,09,06,16.20
2016,08,23,09,07,16.30
2016,08,23,09,08,16.30
2016,08,23,09,09,16.30
2016,08,23,09,10,16.30
2016,08,23,09,11,16.30
2016,08,23,09,12,16.40
2016,08,23,09,13,16.50
2016,08,23,09,14,16.50
2016,08,23,09,15,16.60
2016,08,23,09,16,16.70
2016,08,23,09,17,16.70
2016,08,23,09,18,16.70
2016,08,23,09,19,16.80
2016,08,23,09,20,16.80
2016,08,23,09,21,16.90
2016,08,23,09,22,17.00
2016,08,23,09,23,17.00
2016,08,23,09,24,17.10
2016,08,23,09,25,17.10
2016,08,23,09,26,17.20
2016,08,23,09,27,17.30
2016,08,23,09,28,17.30
2016,08,23,09,29,17.40
2016,08,23,09,30,17.40
2016,08,23,09,31,17.50
2016,08,23,09,32,17.60
2016,08,23,09,33,17.60
2016,08,23,09,34,17.70
2016,08,23,09,35,17.80
2016,08,23,09,36,17.80
2016,08,23,09,37,17.90
2016,08,23,09,38,18.00
2016,08,23,09,39,18.00
2016,08,23,09,40,18.10
2016,08,23,09,41,18.10
2016,08,23,09,42,18.10
2016,08,23,09,43,18.10
2016,08,23,09,44,18.10
2016,08,23,09,45,18.10
2016,08,23,09,46,18.00
2016,08,23,09,47,17.90
2016,08,23,09,48,17.90
2016,08,23,09,49,17.90
2016,08,23,09,50,18.00
2016,08,23,09,51,18.00
2016,08,23,09,52,18.00
2016,08,23,09,53,18.10
2016,08,23,09,54,18.10
2016,08,23,09,55,18.20
2016,08,23,09,56,18.20
2016,08,23,09,57,18.20
2016,08,23,09,58,18.30
2016,08,23,09,59,18.30
2016,08,23,10,00,18.20
2016,08,23,10,01,18.20
2016,08,23,10,02,18.30
2016,08,23,10,03,18.30
2016,08,23,10,04,18.30
2016,08,23,10,05,18.30
2016,08,23,10,06,18.30
2016,08,23,10,07,18.30
2016,08,23,10,08,18.30
2016,08,23,10,09,18.30
2016,08,23,10,10,18.30
2016,08,23,10,11,18.40
2016,08,23,10,12,18.50
2016,08,23,10,13,18.50
2016,08,23,10,14,18.60
2016,08,23,10,15,18.70
2016,08,23,10,16,18.70
2016,08,23,10,17,18.80
2016,08,23,10,18,18.90
2016,08,23,10,19,18.90
2016,08,23,10,20,19.00
2016,08,23,10,21,19.10
2016,08,23,10,22,19.20
2016,08,23,10,23,19.20
2016,08,23,10,24,19.30
2016,08,23,10,25,19.30
2016,08,23,10,26,19.30
2016,08,23,10,27,19.30
2016,08,23,10,28,19.40
2016,08,23,10,29,19.40
2016,08,23,10,30,19.30
2016,08,23,10,31,19.40
2016,08,23,10,32,19.40
2016,08,23,10,33,19.40
2016,08,23,10,34,19.50
2016,08,23,10,35,19.50
2016,08,23,10,36,19.50
2016,08,23,10,37,19.40
2016,08,23,10,38,19.30
2016,08,23,10,39,19.10
2016,08,23,10,40,18.90
2016,08,23,10,41,18.80
2016,08,23,10,42,18.60
2016,08,23,10,43,18.50
2016,08,23,10,44,18.40
2016,08,23,10,45,18.40
2016,08,23,10,46,18.40
2016,08,23,10,47,18.40
2016,08,23,10,48,18.40
2016,08,23,10,49,18.50
2016,08,23,10,50,18.50
2016,08,23,10,51,18.60
2016,08,23,10,52,18.50
2016,08,23,10,53,18.50
2016,08,23,10,54,18.40
2016,08,23,10,55,18.50
2016,08,23,10,56,18.50
2016,08,23,10,57,18.60
2016,08,23,10,58,18.60
2016,08,23,10,59,18.60
2016,08,23,11,00,18.70
2016,08,23,11,01,18.70
2016,08,23,11,02,18.70
2016,08,23,11,03,18.70
2016,08,23,11,04,18.60
2016,08,23,11,05,18.70
2016,08,23,11,06,18.80
2016,08,23,11,07,18.80
2016,08,23,11,08,18.80
2016,08,23,11,09,18.90
2016,08,23,11,10,18.90
2016,08,23,11,11,19.00
2016,08,23,11,12,19.00
2016,08,23,11,13,19.00
2016,08,23,11,14,19.00
2016,08,23,11,15,19.00
2016,08,23,11,16,18.90
2016,08,23,11,17,18.90
2016,08,23,11,18,18.90
2016,08,23,11,19,19.00
2016,08,23,11,20,19.10
2016,08,23,11,21,19.10
2016,08,23,11,22,19.20
2016,08,23,11,23,19.20
2016,08,23,11,24,19.30
2016,08,23,11,25,19.40
2016,08,23,11,26,19.40
2016,08,23,11,27,19.40
2016,08,23,11,28,19.40
2016,08,23,11,29,19.30
2016,08,23,11,30,19.30
2016,08,23,11,31,19.30
2016,08,23,11,32,19.30
2016,08,23,11,33,19.40
2016,08,23,11,34,19.40
2016,08,23,11,35,19.40
2016,08,23,11,36,19.50
2016,08,23,11,37,19.50
2016,08,23,11,38,19.50
2016,08,23,11,39,19.50
2016,08,23,11,40,19.40
2016,08,23,11,41,19.40
2016,08,23,11,42,19.40
2016,08,23,11,43,19.40
2016,08,23,11,44,19.40
2016,08,23,11,45,19.50
2016,08,23,11,46,19.40
2016,08,23,11,47,19.40
2016,08,23,11,48,19.30
2016,08,23,11,49,19.30
2016,08,23,11,50,19.30
2016,08,23,11,51,19.30
2016,08,23,11,52,19.30
2016,08,23,11,53,19.40
2016,08,23,11,54,19.40
2016,08,23,11,55,19.40
2016,08,23,11,56,19.40
2016,08,23,11,57,19.50
2016,08,23,11,58,19.60
2016,08,23,11,59,19.70
2016,08,23,12,00,19.70
2016,08,23,12,01,19.80
2016,08,23,12,02,19.80
2016,08,23,12,03,19.80
2016,08,23,12,04,19.90
2016,08,23,12,05,19.90
2016,08,23,12,06,20.00
2016,08,23,12,07,20.00
2016,08,23,12,08,20.00
2016,08,23,12,09,20.10
2016,08,23,12,10,20.00
2016,08,23,12,11,19.90
2016,08,23,12,12,19.80
2016,08,23,12,13,19.80
2016,08,23,12,14,19.80
2016,08,23,12,15,19.80
2016,08,23,12,16,19.90
2016,08,23,12,17,19.90
2016,08,23,12,18,20.00
2016,08,23,12,19,20.10
2016,08,23,12,20,20.20
2016,08,23,12,21,20.30
2016,08,23,12,22,20.40
2016,08,23,12,23,20.50
2016,08,23,12,24,20.60
2016,08,23,12,25,20.70
2016,08,23,12,26,20.70
2016,08,23,12,27,20.80
2016,08,23,12,28,20.90
2016,08,23,12,29,21.00
2016,08,23,12,30,21.10
2016,08,23,12,31,21.20
2016,08,23,12,32,21.40
2016,08,23,12,33,21.50
2016,08,23,12,34,21.70
2016,08,23,12,35,21.80
2016,08,23,12,36,21.90
2016,08,23,12,37,22.00
2016,08,23,12,38,22.00
2016,08,23,12,39,22.10
2016,08,23,12,40,22.10
2016,08,23,12,41,22.20
2016,08,23,12,42,22.20
2016,08,23,12,43,22.20
2016,08,23,12,44,22.20
2016,08,23,12,45,22.10
2016,08,23,12,46,22.10
2016,08,23,12,47,22.10
2016,08,23,12,48,22.10
2016,08,23,12,49,22.10
2016,08,23,12,50,22.20
2016,08,23,12,51,22.30
2016,08,23,12,52,22.30
2016,08,23,12,53,22.30
2016,08,23,12,54,22.20
2016,08,23,12,55,22.10
2016,08,23,12,56,22.00
2016,08,23,12,57,21.90
2016,08,23,12,58,21.80
2016,08,23,12,59,21.80
2016,08,23,13,00,21.80
2016,08,23,13,01,21.70
2016,08,23,13,02,21.60
2016,08,23,13,03,21.60
2016,08,23,13,04,21.50
2016,08,23,13,05,21.40
2016,08,23,13,06,21.50
2016,08,23,13,07,21.50
2016,08,23,13,08,21.40
2016,08,23,13,09,21.30
2016,08,23,13,10,21.30
2016,08,23,13,11,21.20
2016,08,23,13,12,21.20
2016,08,23,13,13,21.20
2016,08,23,13,14,21.20
2016,08,23,13,15,21.30
2016,08,23,13,16,21.40
2016,08,23,13,17,21.50
2016,08,23,13,18,21.60
2016,08,23,13,19,21.80
2016,08,23,13,20,21.90
2016,08,23,13,21,22.00
2016,08,23,13,22,22.10
2016,08,23,13,23,22.10
2016,08,23,13,24,22.10
2016,08,23,13,25,22.00
2016,08,23,13,26,21.90
2016,08,23,13,27,22.00
2016,08,23,13,28,22.00
2016,08,23,13,29,22.10
2016,08,23,13,30,22.10
2016,08,23,13,31,22.10
2016,08,23,13,32,22.10
2016,08,23,13,33,22.10
2016,08,23,13,34,22.00
2016,08,23,13,35,21.90
2016,08,23,13,36,21.90
2016,08,23,13,37,21.90
2016,08,23,13,38,22.00
2016,08,23,13,39,22.00
2016,08,23,13,40,22.00
2016,08,23,13,41,22.00
2016,08,23,13,42,22.00
2016,08,23,13,43,21.90
2016,08,23,13,44,21.90
2016,08,23,13,45,21.90
2016,08,23,13,46,21.80
2016,08,23,13,47,21.80
2016,08,23,13,48,21.80
2016,08,23,13,49,21.80
2016,08,23,13,50,21.80
2016,08,23,13,51,21.80
2016,08,23,13,52,21.80
2016,08,23,13,53,21.70
2016,08,23,13,54,21.70
2016,08,23,13,55,21.70
2016,08,23,13,56,21.70
2016,08,23,13,57,21.80
2016,08,23,13,58,21.80
2016,08,23,13,59,21.90
2016,08,23,14,00,21.90
2016,08,23,14,01,21.90
2016,08,23,14,02,21.90
2016,08,23,14,03,21.90
2016,08,23,14,04,21.90
2016,08,23,14,05,21.90
2016,08,23,14,06,21.90
2016,08,23,14,07,21.90
2016,08,23,14,08,21.90
2016,08,23,14,09,21.90
2016,08,23,14,10,21.90
2016,08,23,14,11,22.00
2016,08,23,14,12,22.10
2016,08,23,14,13,22.20
2016,08,23,14,14,22.30
2016,08,23,14,15,22.40
2016,08,23,14,16,22.40
2016,08,23,14,17,22.40
2016,08,23,14,18,22.40
2016,08,23,14,19,22.40
2016,08,23,14,20,22.40
2016,08,23,14,21,22.40
2016,08,23,14,22,22.50
2016,08,23,14,23,22.40
2016,08,23,14,24,22.30
2016,08,23,14,25,22.20
2016,08,23,14,26,22.20
2016,08,23,14,27,22.10
2016,08,23,14,28,22.10
2016,08,23,14,29,22.10
2016,08,23,14,30,22.20
2016,08,23,14,31,22.20
2016,08,23,14,32,22.30
2016,08,23,14,33,22.40
2016,08,23,14,34,22.40
2016,08,23,14,35,22.60
2016,08,23,14,36,22.60
2016,08,23,14,37,22.80
2016,08,23,14,38,22.90
2016,08,23,14,39,22.90
2016,08,23,14,40,23.00
2016,08,23,14,41,23.10
2016,08,23,14,42,23.10
2016,08,23,14,43,23.10
2016,08,23,14,44,23.10
2016,08,23,14,45,23.10
2016,08,23,14,46,23.10
2016,08,23,14,47,23.10
2016,08,23,14,48,23.10
2016,08,23,14,49,23.10
2016,08,23,14,50,23.10
2016,08,23,14,51,23.00
2016,08,23,14,52,23.00
2016,08,23,14,53,23.00
2016,08,23,14,54,23.00
2016,08,23,14,55,23.00
2016,08,23,14,56,23.00
2016,08,23,14,57,23.00
2016,08,23,14,58,23.00
2016,08,23,14,59,23.00
2016,08,23,15,00,23.10
2016,08,23,15,01,23.20
2016,08,23,15,02,23.30
2016,08,23,15,03,23.30
2016,08,23,15,04,23.30
2016,08,23,15,05,23.40
2016,08,23,15,06,23.50
2016,08,23,15,07,23.50
2016,08,23,15,08,23.60
2016,08,23,15,09,23.60
2016,08,23,15,10,23.60
2016,08,23,15,11,23.60
2016,08,23,15,12,23.60
2016,08,23,15,13,23.60
2016,08,23,15,14,23.60
2016,08,23,15,15,23.50
2016,08,23,15,16,23.50
2016,08,23,15,17,23.40
2016,08,23,15,18,23.40
2016,08,23,15,19,23.40
2016,08,23,15,20,23.40
2016,08,23,15,21,23.40
2016,08,23,15,22,23.30
2016,08,23,15,23,23.30
2016,08,23,15,24,23.30
2016,08,23,15,25,23.30
2016,08,23,15,26,23.40
2016,08,23,15,27,23.50
2016,08,23,15,28,23.50
2016,08,23,15,29,23.60
2016,08,23,15,30,23.60
2016,08,23,15,31,23.60
2016,08,23,15,32,23.70
2016,08,23,15,33,23.70
2016,08,23,15,34,23.70
2016,08,23,15,35,23.70
2016,08,23,15,36,23.70
2016,08,23,15,37,23.70
2016,08,23,15,38,23.70
2016,08,23,15,39,23.70
2016,08,23,15,40,23.80
2016,08,23,15,41,23.80
2016,08,23,15,42,23.90
2016,08,23,15,43,23.90
2016,08,23,15,44,24.00
2016,08,23,15,45,24.10
2016,08,23,15,46,24.10
2016,08,23,15,47,24.10
2016,08,23,15,48,24.10
2016,08,23,15,49,24.00
2016,08,23,15,50,24.00
2016,08,23,15,51,24.00
2016,08,23,15,52,24.00
2016,08,23,15,53,24.00
2016,08,23,15,54,23.90
2016,08,23,15,55,23.90
2016,08,23,15,56,23.90
2016,08,23,15,57,23.90
2016,08,23,15,58,23.90
2016,08,23,15,59,23.90
2016,08,23,16,00,23.90
2016,08,23,16,01,23.90
2016,08,23,16,02,23.90
2016,08,23,16,03,23.90
2016,08,23,16,04,23.90
2016,08,23,16,05,23.90
2016,08,23,16,06,23.90
2016,08,23,16,07,23.90
2016,08,23,16,08,23.90
2016,08,23,16,09,24.00
2016,08,23,16,10,24.00
2016,08,23,16,11,24.10
2016,08,23,16,12,24.10
2016,08,23,16,13,24.20
2016,08,23,16,14,24.20
2016,08,23,16,15,24.20
2016,08,23,16,16,24.30
2016,08,23,16,17,24.40
2016,08,23,16,18,24.40
2016,08,23,16,19,24.40
2016,08,23,16,20,24.40
2016,08,23,16,21,24.40
2016,08,23,16,22,24.40
2016,08,23,16,23,24.50
2016,08,23,16,24,24.50
2016,08,23,16,25,24.50
2016,08,23,16,26,24.60
2016,08,23,16,27,24.60
2016,08,23,16,28,24.60
2016,08,23,16,29,24.70
2016,08,23,16,30,24.70
2016,08,23,16,31,24.70
2016,08,23,16,32,24.70
2016,08,23,16,33,24.60
2016,08,23,16,34,24.50
2016,08,23,16,35,24.50
2016,08,23,16,36,24.40
2016,08,23,16,37,24.40
2016,08,23,16,38,24.40
2016,08,23,16,39,24.40
2016,08,23,16,40,24.40
2016,08,23,16,41,24.40
2016,08,23,16,42,24.40
2016,08,23,16,43,24.40
2016,08,23,16,44,24.40
2016,08,23,16,45,24.40
2016,08,23,16,46,24.40
2016,08,23,16,47,24.40
2016,08,23,16,48,24.40
2016,08,23,16,49,24.30
2016,08,23,16,50,24.30
2016,08,23,16,51,24.30
2016,08,23,16,52,24.30
2016,08,23,16,53,24.30
2016,08,23,16,54,24.30
2016,08,23,16,55,24.30
2016,08,23,16,56,24.20
2016,08,23,16,57,24.20
2016,08,23,16,58,24.20
2016,08,23,16,59,24.20
2016,08,23,17,00,24.20
2016,08,23,17,01,24.20
2016,08,23,17,02,24.20
2016,08,23,17,03,24.30
2016,08,23,17,04,24.30
2016,08,23,17,05,24.30
2016,08,23,17,06,24.40
2016,08,23,17,07,24.40
2016,08,23,17,08,24.40
2016,08,23,17,09,24.50
2016,08,23,17,10,24.50
2016,08,23,17,11,24.50
2016,08,23,17,12,24.60
2016,08,23,17,13,24.60
2016,08,23,17,14,24.70
2016,08,23,17,15,24.70
2016,08,23,17,16,24.70
2016,08,23,17,17,24.70
2016,08,23,17,18,24.80
2016,08,23,17,19,24.80